Regional Weather Roundup
Issued by NWS Portland, ME

Home | Current Version | Previous Version | Text Only | Print | Product List | Glossary On
Versions: 1 2 3 4 5 6 7 8 9 10 11 12 13 14 15 16 17 18 19 20 21 22 23 24 25 26 27 28 29 30 31 32 33 34 35 36 37 38 39 40 41 42 43 44 45 46 47 48 49 50
000
ASUS41 KGYX 050410
RWRGYX
WEATHER ROUNDUP FOR MAINE AND NEW HAMPSHIRE
NATIONAL WEATHER SERVICE GRAY ME
1100 PM EST WED MAR 04 2015

MEZ002-005-006-010-012-015-018-020-021-024-026-027-029-050500-
MAINE

CITY           SKY/WX    TMP DP  RH WIND       PRES   REMARKS
PORTLAND       CLOUDY    40  24  53 W12       29.79R
SANFORD        CLOUDY   N/A N/A N/A MISG        N/A
BAR HARBOR     CLOUDY    32  30  93 CALM      29.73R
WISCASSET      CLOUDY    38  25  59 VRB6      29.77R
ROCKLAND       CLOUDY    37  27  65 W8        29.74R
FRYEBURG       CLOUDY    36  19  50 W7        29.75R
LEWISTONAUBURN CLOUDY    37  23  56 SW10      29.74R
AUGUSTA        CLOUDY    37  21  52 W8        29.74R
WATERVILLE     CLOUDY    36  21  55 NW6       29.71R
BANGOR         CLOUDY    28  23  81 CALM      29.73R
GREENVILLE       N/A     27  15  61 VRB3      29.61R
MILLINOCKET    MOCLDY    33  15  47 W9G18     29.68S
HOULTON        PTCLDY    26  14  60 S6        29.63F
PRESQUE ISLE   PTCLDY    28  12  50 SW9G16    29.59R
FRENCHVILLE    PTCLDY    22  14  71 W13       29.55R WCI  10
CARIBOU        CLOUDY    25  14  63 W6G18     29.59R
$$

NHZ002-005-008-009-011-012-014-050500-
NEW HAMPSHIRE

CITY           SKY/WX    TMP DP  RH WIND       PRES   REMARKS
PORTSMOUTH     CLOUDY    38  23  55 SW8       29.80R
ROCHESTER      CLOUDY    37  20  50 W8        29.80R
NASHUA         CLOUDY    38  27  65 CALM      29.84R
MANCHESTER     CLOUDY    38  26  62 W9        29.82R
CONCORD        CLOUDY    36  21  54 W7        29.81R
LACONIA        CLOUDY    36  19  51 W10       29.78R
PLYMOUTH       FAIR      35  23  62 W8        29.79F
BERLIN         CLOUDY    31  13  47 VRB7      29.72R
WHITEFIELD     CLOUDY    32  16  51 W8G17     29.76R
JAFFREY        CLOUDY    34  23  64 W9G17     29.81R
KEENE          CLOUDY    36  25  64 W6        29.84F
LEBANON        CLOUDY    35  18  49 SW3G17    29.82R
MT WASHINGTON  BLWGSNOW   7   7 100 NW72G78     N/A  VSB 0   WCI -25
$$

VTZ005-007-008-050500-
VERMONT

CITY           SKY/WX    TMP DP  RH WIND       PRES   REMARKS
ST JOHNSBURY     N/A     32  13  45 MISG      29.78R
MONTPELIER     CLOUDY    29  14  53 VRB7      29.84R
BURLINGTON     CLOUDY    32  15  49 W14G20    29.87R
$$

MAZ007-012-024-CTZ003-RIZ002-NYZ038-NYZ072-050500-
SOUTHERN NEW ENGLAND AND NY

CITY           SKY/WX    TMP DP  RH WIND       PRES   REMARKS
BOSTON         CLOUDY    39  30  70 SW7       29.86R
WORCESTER      CLOUDY    35  27  72 W10G18    29.81S
NANTUCKET      MIX PCPN  37  35  92 W9        29.89S FOG
PROVIDENCE     LGT RAIN  36  34  92 S5        29.87S
HARTFORD       CLOUDY    37  31  78 CALM      29.87R
ALBANY         CLOUDY    34  22  61 NW14      29.94R
NEW YORK CITY  LGT RAIN  43  37  79 W7G17     29.91S
$$

ANZ081-ANZ082-ANZ150-NHZ014-MEZ023>029-050500-
COASTAL MARINE OBSERVATIONS

STATION/POSITION TIME  TEMP    WIND        PRES    WAVE
                       AIR SEA DIR/SP/G            HT/PER
                 (UTC) (F)     (DEG/KT/KT) (MB)    (FT/S)
MOUNT DESERT ROC 0400   40                 1006.1R
MATINICUS ROCK   0400   39     260/ 27/ 30 1007.0R
WELLS            0300   39     250/  4/  5 1007.7F
ISLE OF SHOALS   0400   38     240/ 11/ 11 1009.2R
JEFFREYS LEDGE   0321      40                N/A     5/10
CASHES LEDGE BUO 0350   41 39              1006.7R   7/10
$$

.............KEY..............
   WCI - WIND CHILL
   TC  - TEMPERATURE IN CELSIUS
   VSB - VISIBILITY IN MILES
   HX  - HEAT INDEX
   FAIR- INDICATES FEW OR NO CLOUDS BELOW 12,000 FT, WITH NO
         SIGNIFICANT WEATHER AND/OR OBSTRUCTIONS TO VISIBILITY.




USA.gov is the U.S. government's official web portal to all federal, state and local government web resources and services.